Tracking 31027 objects as of 19-Jul-2025
HD Live streaming from Space Station
objects crossing your sky now

DELTA 2 R/B(1)

Track DELTA 2 R/B(1) now!
10-day predictions


NORAD ID: 22097
Int'l Code: 1992-057B
Perigee: 1,775.4 km
Apogee: 2,645.5 km
Inclination: 25.2 °
Period: 131.9 minutes
Semi major axis: 8581 km
RCS: 10.6891 m2 (large)
Launch date: August 31, 1992
Source: United States (US)
Launch site: AIR FORCE EASTERN TEST RANGE (AFETR)

Note: This is a ROCKET BODY
Your satellite tracking list
KORSAT 7
Track 1 satellite(s)




NASA's NSSDC Master Catalog

Two Line Element Set (TLE):
1 22097U 92057B   25199.58640529  .00000063  00000-0  10047-3 0  9992
2 22097  25.1927 245.9982 0506964  91.5664  64.8349 10.92089701313107
Source of the keplerian elements: AFSPC